Regional Weather Roundup
Issued by NWS

Home | Current Version | Previous Version | Text Only | Print | Product List | Glossary On
Versions: 1 2 3 4 5 6 7 8 9 10 11 12 13 14 15 16 17 18 19 20 21 22 23 24 25 26 27
000
ASUS45 KBOI 022210
RWRID

IDAHO REGIONAL WEATHER ROUNDUP
NATIONAL WEATHER SERVICE BOISE ID
400 PM MDT MON MAY 02 2016

NOTE: "FAIR" INDICATES FEW OR NO CLOUDS BELOW 12000 FEET
WITH NO SIGNIFICANT WEATHER AND/OR OBSTRUCTIONS TO VISIBILITY

IDZ012-014-022300-
SOUTHWEST IDAHO


CITY           SKY/WX    TMP DP  RH WIND       PRES   REMARKS
BOISE          SUNNY     74  29  19 SE9G16    30.10F
CALDWELL       SUNNY     75  32  20 E8        30.09F
MOUNTAIN HOME  SUNNY     73  25  16 SE16G23   30.11F
$$

IDZ016-017-022300-
SOUTHCENTRAL IDAHO


CITY           SKY/WX    TMP DP  RH WIND       PRES   REMARKS
BURLEY         SUNNY     66  33  29 VRB3      30.15F
JEROME         SUNNY     67  29  24 VRB6      30.16F
TWIN FALLS     SUNNY     66  33  29 VRB3      30.15F
$$

IDZ019>023-022300-
SOUTHEAST IDAHO


CITY           SKY/WX    TMP DP  RH WIND       PRES   REMARKS
IDAHO FALLS    SUNNY     65  20  17 NE3       30.19F
POCATELLO      MOSUNNY   65  25  22 W10       30.19F
REXBURG        SUNNY     65  21  18 VRB5      30.18F
$$

IDZ006-010-011-018-031-032-022300-
CENTRAL IDAHO MOUNTAINS


CITY           SKY/WX    TMP DP  RH WIND       PRES   REMARKS
MCCALL         MOSUNNY   66  32  28 SW10      30.15F
HAILEY         MOSUNNY   63  28  27 SE14      30.21F
STANLEY          N/A     64  19  17 CALM      30.20F
SALMON           N/A    N/A N/A N/A MISG        N/A
CHALLIS        SUNNY     69  20  15 VRB6      30.15F
$$

IDZ002-004-006-007-026-022300-
NORTHERN IDAHO


CITY           SKY/WX    TMP DP  RH WIND       PRES   REMARKS
LEWISTON       SUNNY     80  43  26 E7        30.03F
LOWELL           N/A     80  36  20 S8        30.01F
COEUR D`ALENE  SUNNY     79  41  25 W7        30.06F
MULLAN PASS    SUNNY     61  27  27 CALM      30.22F
$$




USA.gov is the U.S. government's official web portal to all federal, state and local government web resources and services.